CW8968 Weather Reports


time (UTC)temp
C
wind
direction
speed
KPH
gust
KPH
rain 1hr
cm
rain 24hr
cm
rain mn
cm
humidity
%
barometer
mb
20260502195758 16 5 0.0 0.0 0.00 0.00 0.00 82
20260502195253 16 5 0.0 1.6 0.00 0.00 0.00 82
20260502194748 16 5 0.0 1.6 0.00 0.00 0.00 81
20260502194243 17 5 0.0 0.0 0.00 0.00 0.00 80
20260502193735 17 5 0.0 8.0 0.00 0.00 0.00 80
20260502193230 17 5 1.6 12.9 0.00 0.00 0.00 80
20260502192719 17 5 1.6 12.9 0.00 0.00 0.00 79
20260502192219 17 290 0.0 3.2 0.00 0.00 0.00 77
20260502191711 18 289 0.0 0.0 0.00 0.00 0.00 76
20260502191206 18 289 0.0 0.0 0.00 0.00 0.00 75
20260502190659 19 289 0.0 0.0 0.00 0.00 0.00 75
20260502190421 19 289 0.0 3.2 0.00 0.00 0.00 74
20260502185648 20 290 0.0 3.2 0.00 0.00 0.00 73
20260502185141 20 288 0.0 8.0 0.00 0.00 0.00 73
20260502184635 20 288 0.0 8.0 0.00 0.00 0.00 72
20260502184130 20 288 0.0 9.7 0.00 0.00 0.00 71
20260502183624 20 287 0.0 9.7 0.00 0.00 0.00 70
20260502183117 21 288 0.0 3.2 0.00 0.00 0.00 69
20260502182611 21 287 0.0 6.4 0.00 0.00 0.00 68
20260502182105 21 287 0.0 6.4 0.00 0.00 0.00 67
20260502181600 21 276 1.6 8.0 0.00 0.00 0.00 67
20260502181053 22 262 1.6 8.0 0.00 0.00 0.00 66
20260502180547 22 269 0.0 8.0 0.00 0.00 0.00 65
20260502170436 23 261 4.8 19.3 0.00 0.00 0.00 60
20260502163905 23 259 4.8 22.5 0.00 0.00 0.00 60
20260502163355 23 185 4.8 22.5 0.00 0.00 0.00 60
20260502163124 23 220 4.8 25.7 0.00 0.00 0.00 61
20260502162617 23 290 8.0 25.7 0.00 0.00 0.00 60
20260502161841 23 217 4.8 20.9 0.00 0.00 0.00 60
20260502161335 23 218 3.2 12.9 0.00 0.00 0.00 60
20260502161100 23 213 4.8 12.9 0.00 0.00 0.00 60
20260502160323 23 186 4.8 14.5 0.00 0.00 0.00 60
20260502152236 23 256 6.4 24.1 0.00 0.00 0.00 60
20260502151731 23 252 4.8 22.5 0.00 0.00 0.00 60
20260502151223 23 292 6.4 32.2 0.00 0.00 0.00 60
20260502150717 23 215 9.7 30.6 0.00 0.00 0.00 60
20260502150713 23 292 8.0 32.2 0.00 0.00 0.00 60
20260502130445 24 198 9.7 29.0 0.00 0.00 0.00 51
20260502123412 25 202 9.7 35.4 0.00 0.00 0.00 50
20260502123408 25 210 11.3 35.4 0.00 0.00 0.00 50
20260502122400 25 227 12.9 35.4 0.00 0.00 0.00 49
20260502121849 25 229 14.5 38.6 0.00 0.00 0.00 50
20260502121348 25 198 11.3 38.6 0.00 0.00 0.00 50
20260502121113 24 232 9.7 29.0 0.00 0.00 0.00 49
20260502120333 25 182 11.3 27.4 0.00 0.00 0.00 46
20260502115830 25 234 14.5 38.6 0.00 0.00 0.00 46
20260502115328 25 232 11.3 38.6 0.00 0.00 0.00 46
20260502114812 25 217 9.7 25.7 0.00 0.00 0.00 46
20260502114310 25 261 11.3 33.8 0.00 0.00 0.00 45
20260502114035 25 213 8.0 33.8 0.00 0.00 0.00 46
20260502113253 25 194 11.3 27.4 0.00 0.00 0.00 45
20260502112751 24 176 11.3 33.8 0.00 0.00 0.00 47
20260502112244 24 202 9.7 33.8 0.00 0.00 0.00 46
20260502111731 24 223 11.3 32.2 0.00 0.00 0.00 45
20260502111230 24 170 8.0 27.4 0.00 0.00 0.00 46
20260502110952 24 206 6.4 27.4 0.00 0.00 0.00 45
20260502110445 24 229 11.3 32.2 0.00 0.00 0.00 46
20260502105709 24 218 12.9 32.2 0.00 0.00 0.00 45
20260502105206 24 143 12.9 35.4 0.00 0.00 0.00 45
20260502104706 24 178 9.7 35.4 0.00 0.00 0.00 44
20260502104204 23 198 9.7 30.6 0.00 0.00 0.00 42
20260502103703 23 176 8.0 30.6 0.00 0.00 0.00 43
20260502103442 23 194 4.8 20.9 0.00 0.00 0.00 46
20260502102931 23 188 6.4 20.9 0.00 0.00 0.00 46
20260502102201 23 128 6.4 20.9 0.00 0.00 0.00 45
20260502101658 22 220 6.4 27.4 0.00 0.00 0.00 46
20260502101157 22 199 9.7 27.4 0.00 0.00 0.00 46
20260502100927 22 130 9.7 22.5 0.00 0.00 0.00 46
20260502100427 22 182 8.0 20.9 0.00 0.00 0.00 48
20260502091122 23 188 8.0 27.4 0.00 0.00 0.00 44
20260502090615 22 181 6.4 27.4 0.00 0.00 0.00 47
20260502090108 22 198 8.0 20.9 0.00 0.00 0.00 47
20260502071511 18 167 12.9 27.4 0.00 0.00 0.00 55
20260502071241 18 185 11.3 27.4 0.00 0.00 0.00 55
20260502070514 18 192 6.4 27.4 0.00 0.00 0.00 57
20260502070013 17 155 4.8 20.9 0.00 0.00 0.00 58
20260502065507 17 190 8.0 29.0 0.00 0.00 0.00 59
20260502064952 17 185 12.9 35.4 0.00 0.00 0.00 59
20260502064446 16 158 11.3 35.4 0.00 0.00 0.00 60
20260502063948 16 185 8.0 29.0 0.00 0.00 0.00 61
20260502063446 16 176 8.0 22.5 0.00 0.00 0.00 62
20260502062949 16 163 8.0 22.5 0.00 0.00 0.00 63
20260502062450 15 211 4.8 19.3 0.00 0.00 0.00 63
20260502061948 15 179 3.2 16.1 0.00 0.00 0.00 63
20260502061446 15 154 1.6 12.9 0.00 0.00 0.00 64
20260502060947 15 153 1.6 12.9 0.00 0.00 0.00 65
20260502060447 14 147 1.6 9.7 0.00 0.00 0.00 65
20260502055948 14 146 0.0 6.4 0.00 0.00 0.00 67
20260502055447 13 146 1.6 11.3 0.00 0.00 0.00 66
20260502055218 13 146 1.6 11.3 0.00 0.00 0.00 67
20260502054447 13 141 1.6 9.7 0.00 0.00 0.00 67
20260502054219 13 141 1.6 9.7 0.00 0.00 0.00 68
20260502053435 13 141 1.6 9.7 0.00 0.00 0.00 68
20260502052924 12 140 1.6 9.7 0.00 0.00 0.00 69
20260502052411 12 140 1.6 9.7 0.00 0.00 0.00 70
20260502051902 11 146 3.2 12.9 0.00 0.00 0.00 71
20260502051401 11 140 1.6 12.9 0.00 0.00 0.00 72
20260502050901 11 144 1.6 8.0 0.00 0.00 0.00 74
20260502050401 10 144 1.6 8.0 0.00 0.00 0.00 76
20260502045900 10 144 1.6 8.0 0.00 0.00 0.00 76
20260502045631 10 144 1.6 9.7 0.00 0.00 0.00 76
20260502044900 9 144 0.0 9.7 0.00 0.00 0.00 76
20260502044401 9 144 0.0 8.0 0.00 0.00 0.00 76
20260502043900 9 144 0.0 3.2 0.00 0.00 0.00 76
20260502043355 9 144 0.0 6.4 0.00 0.00 0.00 76
20260502043115 9 144 0.0 9.7 0.00 0.00 0.00 76
20260502042612 9 144 0.0 9.7 0.00 0.00 0.00 76
20260502041841 9 144 0.0 8.0 0.00 0.00 0.00 76
20260502041612 9 144 0.0 8.0 0.00 0.00 0.00 76
20260502040840 9 144 0.0 9.7 0.00 0.00 0.00 75
20260502040341 9 143 0.0 9.7 0.00 0.00 0.00 75
20260502035841 9 144 0.0 12.9 0.00 0.00 0.00 75
20260502035341 9 144 0.0 12.9 0.00 0.00 0.00 74
20260502034837 10 143 0.0 4.8 0.00 0.00 0.00 74
20260502034335 10 143 1.6 11.3 0.00 0.00 0.00 74
20260502033835 10 143 1.6 11.3 0.00 0.00 0.00 74
20260502033335 10 143 0.0 6.4 0.00 0.00 0.00 73
20260502032836 10 143 0.0 9.7 0.00 0.00 0.00 73
20260502032333 10 143 0.0 9.7 0.00 0.00 0.00 72
20260502031826 10 143 0.0 6.4 0.00 0.00 0.00 72
20260502031317 10 143 0.0 6.4 0.00 0.00 0.00 72
20260502030811 11 143 0.0 3.2 0.00 0.00 0.00 71
20260502030544 11 143 1.6 11.3 0.00 0.00 0.00 71
20260502025809 11 143 1.6 11.3 0.00 0.00 0.00 71
20260502025308 11 142 1.6 9.7 0.00 0.00 0.00 71
20260502024808 11 142 1.6 12.9 0.00 0.00 0.00 71
20260502024307 11 142 3.2 12.9 0.00 0.00 0.00 71
20260502023807 11 136 1.6 12.9 0.00 0.00 0.00 71
20260502023538 11 124 1.6 12.9 0.00 0.00 0.00 71
20260502023528 11 124 1.6 11.3 0.00 0.00 0.00 71
20260502022307 11 124 1.6 11.3 0.00 0.00 0.00 71
20260502021807 11 127 1.6 11.3 0.00 0.00 0.00 71
20260502021308 11 128 1.6 11.3 0.00 0.00 0.00 71
20260502021035 11 129 1.6 19.3 0.00 0.00 0.00 71
20260502020303 11 128 1.6 19.3 0.00 0.00 0.00 70
20260502015803 11 145 1.6 9.7 0.00 0.00 0.00 70
20260502015301 11 145 0.0 9.7 0.00 0.00 0.00 70
20260502014753 12 145 0.0 9.7 0.00 0.00 0.00 69
20260502014514 12 145 1.6 11.3 0.00 0.00 0.00 69
20260502013734 12 144 1.6 12.9 0.00 0.00 0.00 69
20260502013231 12 119 1.6 12.9 0.00 0.00 0.00 70
20260502012726 12 120 1.6 11.3 0.00 0.00 0.00 70
20260502012218 12 119 1.6 11.3 0.00 0.00 0.00 69
20260502011715 12 119 1.6 16.1 0.00 0.00 0.00 69
20260502011203 12 119 1.6 16.1 0.00 0.00 0.00 70
20260502010701 12 119 1.6 11.3 0.00 0.00 0.00 70
20260502010205 12 119 1.6 6.4 0.00 0.00 0.00 70
20260502005921 12 119 1.6 12.9 0.00 0.00 0.00 69
20260502005143 12 119 1.6 12.9 0.00 0.00 0.00 70
20260502004902 12 118 0.0 6.4 0.00 0.00 0.00 70
20260502004130 12 115 1.6 12.9 0.00 0.00 0.00 69
20260502003623 12 115 0.0 12.9 0.00 0.00 0.00 69
20260502003116 12 114 0.0 11.3 0.00 0.00 0.00 69
20260502002610 12 115 0.0 11.3 0.00 0.00 0.00 69
20260502002102 12 104 1.6 12.9 0.00 0.00 0.00 70
20260502001559 12 103 0.0 12.9 0.00 0.00 0.00 70
20260502001323 12 103 1.6 14.5 0.00 0.00 0.00 70
20260502000549 12 103 1.6 14.5 0.00 0.00 0.00 70
20260502000040 12 100 0.0 9.7 0.00 0.00 0.00 70
20260501235535 12 100 0.0 8.0 0.00 0.00 0.00 70
20260501235029 12 100 0.0 8.0 0.00 0.00 0.00 70
20260501234525 12 100 0.0 3.2 0.00 0.00 0.00 70
20260501234017 12 100 0.0 3.2 0.00 0.00 0.00 69
20260501233511 12 100 0.0 3.2 0.00 0.00 0.00 70
20260501233000 12 100 0.0 3.2 0.00 0.00 0.00 70
20260501232500 12 100 0.0 4.8 0.00 0.00 0.00 70
20260501232226 12 100 0.0 4.8 0.00 0.00 0.00 70
20260501231447 12 100 0.0 4.8 0.00 0.00 0.00 70
20260501230941 12 100 0.0 1.6 0.00 0.00 0.00 69
20260501230436 12 100 0.0 9.7 0.00 0.00 0.00 70
20260501225930 12 100 0.0 9.7 0.00 0.00 0.00 69
20260501225420 12 84 0.0 0.0 0.00 0.00 0.00 69
20260501224917 12 84 0.0 0.0 0.00 0.00 0.00 69
20260501224412 12 84 0.0 4.8 0.00 0.00 0.00 68
20260501223906 12 84 0.0 4.8 0.00 0.00 0.00 68
20260501223400 12 84 0.0 3.2 0.00 0.00 0.00 68
20260501222853 12 84 0.0 3.2 0.00 0.00 0.00 68
20260501222348 12 84 0.0 3.2 0.00 0.00 0.00 68
20260501221839 13 84 0.0 3.2 0.00 0.00 0.00 68
20260501221336 13 84 0.0 3.2 0.00 0.00 0.00 68
20260501220829 13 84 0.0 3.2 0.00 0.00 0.00 67
20260501220324 13 84 0.0 0.0 0.00 0.00 0.00 65
20260501215817 13 84 0.0 0.0 0.00 0.00 0.00 64
20260501215308 13 84 0.0 0.0 0.00 0.00 0.00 64
20260501214806 14 84 0.0 0.0 0.00 0.00 0.00 63
20260501214300 14 84 0.0 8.0 0.00 0.00 0.00 63
20260501213754 15 84 0.0 8.0 0.00 0.00 0.00 62
20260501213249 15 84 0.0 0.0 0.00 0.00 0.00 61
20260501212736 15 84 0.0 0.0 0.00 0.00 0.00 60
20260501212236 15 84 0.0 0.0 0.00 0.00 0.00 59
20260501211729 16 84 0.0 0.0 0.00 0.00 0.00 58
20260501211224 16 84 0.0 8.0 0.00 0.00 0.00 58
20260501210949 16 84 0.0 8.0 0.00 0.00 0.00 57
20260501210210 16 84 0.0 8.0 0.00 0.00 0.00 57
20260501205703 16 84 0.0 1.6 0.00 0.00 0.00 56
20260501205430 16 84 0.0 8.0 0.00 0.00 0.00 55
20260501204651 17 84 0.0 8.0 0.00 0.00 0.00 55
20260501204146 17 84 0.0 3.2 0.00 0.00 0.00 54
20260501203636 17 84 0.0 4.8 0.00 0.00 0.00 54
20260501203134 17 84 0.0 8.0 0.00 0.00 0.00 53
20260501202627 17 84 0.0 8.0 0.00 0.00 0.00 53
20260501202123 17 84 1.6 11.3 0.00 0.00 0.00 52
20260501201615 18 84 0.0 11.3 0.00 0.00 0.00 52
20260501201336 18 105 1.6 11.3 0.00 0.00 0.00 52
20260501200604 18 105 1.6 14.5 0.00 0.00 0.00 52